Regional Weather Roundup
Issued by NWS Newport/Morehead, NC

Current Version | Previous Version | Graphics & Text | Print | Product List | Glossary Off
Versions: 1 2 3 4 5 6 7 8 9 10 11 12 13 14 15 16 17 18 19 20 21 22 23 24 25 26 27 28 29 30 31 32 33 34 35 36 37 38 39 40 41 42 43 44 45 46 47 48 49 50
000 ASUS42 KMHX 292013 RWRMHX WEATHER ROUNDUP FOR EASTERN NORTH CAROLINA NATIONAL WEATHER SERVICE NEWPORT/MOREHEAD CITY NC 400 PM EDT FRI JUL 29 2016 NOTE: "FAIR" INDICATES FEW OR NO CLOUDS BELOW 12,000 FEET WITH NO SIGNIFICANT WEATHER AND/OR OBSTRUCTIONS TO VISIBILITY NCZ015>017-031-032-045>047-102-103-292100- NORTH COAST CITY SKY/WX TMP DP RH WIND PRES REMARKS EDENTON CLOUDY 90 72 54 NW8 29.88S ELIZABETH CITY PTSUNNY 90 73 57 W9 29.86F KITTY HAWK CLOUDY 91 75 60 NE5 29.86S HX 102 MANTEO N/A 89 76 65 N9 29.87S HX 101 $$ NCZ045>047-081-094-103-104-292100- CENTRAL COAST CITY SKY/WX TMP DP RH WIND PRES REMARKS FRISCO PTSUNNY 85 79 82 SW10G18 29.89S $$ NCZ095-097-098-100-101-292100- SOUTHERN COAST CITY SKY/WX TMP DP RH WIND PRES REMARKS BEAUFORT SUNNY 88 79 74 SW21G28 29.89S HX 103 CEDAR ISLAND NOT AVBL JACKSONVILLE PTSUNNY 94 71 47 W9 29.88S HX 101 PINEY ISLAND NOT AVBL WILMINGTON MOSUNNY 93 72 50 W14 29.89F HX 101 $$ NCZ011>013-027>030-043-044-078>080-089-090>093-098-292100- COASTAL PLAIN CITY SKY/WX TMP DP RH WIND PRES REMARKS AHOSKIE MOSUNNY 85 74 68 N5 29.89S CLINTON SUNNY 94 73 49 NW8 29.90F HX 102 ELIZABETHTOWN PTSUNNY 93 71 49 W8 29.91S HX 100 GOLDSBORO MOSUNNY 95 68 41 W12 29.88F GREENVILLE MOSUNNY 93 73 52 NW8 29.90S HX 102 HAVELOCK PTSUNNY 93 72 50 W13 29.88F HX 101 KENANSVILLE NOT AVBL KINSTON MOSUNNY 93 70 46 W9 29.90S NEW BERN MOSUNNY 94 75 54 W6 29.89S HX 105 RICHLANDS MOSUNNY 96 72 45 W9 29.89F HX 104 ROCKY MOUNT MOSUNNY 92 72 51 W7 29.89F WASHINGTON CLOUDY 89 74 62 NW3 29.88S WHITEVILLE MOSUNNY 91 73 55 W3 29.91S $$ AMZ130-135-150-152-154-156-158-170-250-252-270-ANZ085-086-088-633-658-670-292100- MARINE OBSERVATIONS STATION/POSITION TIME TEMP WIND PRES WAVE SWELL AIR SEA DIR/SP/G HT/PER HT/PER (UTC) (F) (DEG/KT/KT) (MB) (FT/S) (FT/S) CHESAPEAKE LIGHT NOT AVBL 64 E VA BEACH 1950 83 84 270/ 6/ 8 1011.2 2/ 5 2/ 5 DUCK 1900 80 68 50/ 10/ 11 1010.9 2 E DUCK 1911 76 N/A 1/ 8 OREGON INLET 1900 87 84 40/ 6/ 7 1011.2 13E OREGON INLT 1900 82 N/A 3/ 6 2/ 6 HATTERAS CG 1900 87 84 210/ 10/ 14 1011.7 DIAMOND BUOY 1950 87 85 230/ 17/ 21 1011.8 4/ 6 2/16 CAPE LOOKOUT 2000 87 220/ 11/ 17 1011.8 BEAUFORT LAB 1900 87 83 210/ 11/ 19 1011.6 30 SE NEW RVR IN 1908 86 85 220/ 16/ 21 1012.7 30 SE NEW RVR IN 1855 85 N/A 4/ 6 27 SE WRIGHTSVLE 1908 85 84 220/ 17/ 23 1012.9 5 SE WRIGHTSVLE 1908 83 80 210/ 16/ 19 1013.2 225 S CAPE HAT 1950 85 85 240/ 10/ 12 1015.7 4/ 6 3/ 6 41 SE CHARLESTON 1950 86 86 210/ 17/ 19 1013.6 3/ 6 2/ 8 $$

USA.gov is the U.S. government's official web portal to all federal, state and local government web resources and services.